TimeCST,TemperatureF,Dew PointF,Humidity,Sea Level PressureIn,VisibilityMPH,Wind Direction,Wind SpeedMPH,Gust SpeedMPH,PrecipitationIn,Events,Conditions,WindDirDegrees,DateUTC
12:53 AM,46.0,42.1,86,29.87,10.0,SSW,15.0,-,N/A,,Clear,210,2013-11-09 06:53:00
1:53 AM,44.1,41.0,89,29.88,10.0,SSW,16.1,-,N/A,,Clear,200,2013-11-09 07:53:00
2:53 AM,41.0,39.0,93,29.88,10.0,SSW,11.5,-,N/A,,Clear,200,2013-11-09 08:53:00
3:53 AM,39.0,37.0,93,29.89,10.0,South,10.4,-,N/A,,Clear,190,2013-11-09 09:53:00
4:53 AM,36.0,34.0,93,29.90,10.0,SSW,9.2,-,N/A,,Clear,200,2013-11-09 10:53:00
5:53 AM,35.1,34.0,96,29.93,8.0,SW,8.1,-,N/A,,Clear,220,2013-11-09 11:53:00
6:53 AM,39.9,34.0,79,29.95,10.0,WNW,12.7,-,N/A,,Clear,300,2013-11-09 12:53:00
7:53 AM,39.9,33.1,77,29.98,10.0,NW,11.5,-,N/A,,Clear,320,2013-11-09 13:53:00
8:53 AM,44.1,34.0,68,30.01,10.0,NNW,15.0,-,N/A,,Clear,340,2013-11-09 14:53:00
9:53 AM,46.9,34.0,61,30.03,10.0,NNW,15.0,-,N/A,,Clear,340,2013-11-09 15:53:00
10:53 AM,51.1,35.1,54,30.04,10.0,North,17.3,-,N/A,,Clear,350,2013-11-09 16:53:00
11:53 AM,55.9,36.0,47,30.04,10.0,North,13.8,20.7,N/A,,Clear,10,2013-11-09 17:53:00
12:53 PM,61.0,37.9,42,30.02,10.0,North,15.0,18.4,N/A,,Clear,10,2013-11-09 18:53:00
1:53 PM,63.0,37.9,40,30.01,10.0,NNE,15.0,20.7,N/A,,Clear,30,2013-11-09 19:53:00
2:53 PM,63.0,39.0,41,30.04,10.0,NE,12.7,-,N/A,,Clear,50,2013-11-09 20:53:00
3:53 PM,62.1,39.0,43,30.06,10.0,NNE,10.4,-,N/A,,Clear,30,2013-11-09 21:53:00
4:53 PM,60.1,37.9,44,30.08,10.0,NE,9.2,-,N/A,,Clear,40,2013-11-09 22:53:00
5:53 PM,53.1,37.9,57,30.12,10.0,NNE,8.1,-,N/A,,Clear,20,2013-11-09 23:53:00
6:53 PM,51.1,37.9,61,30.14,10.0,NE,4.6,-,N/A,,Clear,40,2013-11-10 00:53:00
7:53 PM,46.9,37.0,68,30.18,10.0,ENE,5.8,-,N/A,,Clear,70,2013-11-10 01:53:00
8:53 PM,46.9,37.0,68,30.19,10.0,ESE,6.9,-,N/A,,Clear,110,2013-11-10 02:53:00
9:53 PM,44.1,37.0,76,30.20,10.0,Calm,Calm,-,N/A,,Clear,0,2013-11-10 03:53:00
10:53 PM,43.0,36.0,76,30.21,10.0,Calm,Calm,-,N/A,,Clear,0,2013-11-10 04:53:00
11:53 PM,42.1,36.0,79,30.21,10.0,Calm,Calm,-,N/A,,Clear,0,2013-11-10 05:53:00